Weather History for KTQE - November, 2012

Change the Weather History Date:

Tuesday, November 20, 2012

  Actual Average Record
Temperature  
Mean Temperature 44 °F -  
Max Temperature 63 °F 46 °F 73 °F (2003)
Min Temperature 26 °F 26 °F -1 °F (1950)
Degree Days  
Heating Degree Days 20    
Moisture  
Dew Point 30 °F    
Average Humidity 71    
Maximum Humidity 93    
Minimum Humidity 31    
Precipitation  
Precipitation 0.00 in - - ()
Sea Level Pressure  
Sea Level Pressure 30.17 in    
Wind  
Wind Speed 4 mph (South)    
Max Wind Speed 12 mph    
Max Gust Speed -    
Visibility 5 miles    
Events      
Averages and records for this station are not official NWS values.
T = Trace of Precipitation, MM = Missing Value Source: NWS Daily Summary

Daily Weather History Graph

Daily Weather History Graph

Search for Another Location

Airport or City:

Trip Planner

Search our weather history database for the weather conditions in past years. The results will help you decide how hot, cold, wet, or windy it might be!

Date:

Astronomy

Nov. 20, 2012 Rise Set
Actual Time 7:20 AM CST 4:59 PM CST
Civil Twilight 6:50 AM CST 5:30 PM CST
Nautical Twilight 6:16 AM CST 6:04 PM CST
Astronomical Twilight 5:43 AM CST 6:37 PM CST
Moon 12:52 PM CST (11/20) No Moon Set
Length of Visible Light 10h 39m
Length of Day
9h 39m
First Quarter, 51% of the Moon is Illuminated
Nov 20
First Quarter
Nov 28
Full
Dec 6
Last Quarter
Dec 13
New
Dec 19
First Quarter

Hourly Weather History & Observations

Time (CST) Temp. Windchill Dew Point Humidity Pressure Visibility Wind Dir Wind Speed Gust Speed Precip Events Conditions
12:54 AM 37.0 °F 32.4 °F 30.9 °F 79% 30.14 in 7.0 mi NNW 5.8 mph - N/A   Clear
1:54 AM 35.1 °F 30.1 °F 30.9 °F 85% 30.15 in 8.0 mi NNW 5.8 mph - N/A   Clear
2:54 AM 30.9 °F - 28.0 °F 89% 30.16 in 6.0 mi Calm Calm - N/A   Clear
3:54 AM 30.0 °F - 27.0 °F 88% 30.18 in 5.0 mi Calm Calm - N/A   Clear
4:54 AM 28.9 °F 22.8 °F 25.0 °F 85% 30.19 in 5.0 mi North 5.8 mph - N/A   Clear
5:54 AM 30.0 °F - 27.0 °F 88% 30.21 in 4.0 mi Calm Calm - N/A   Clear
6:54 AM 28.0 °F 24.2 °F 25.0 °F 88% 30.21 in 4.0 mi North 3.5 mph - N/A   Clear
7:33 AM 26.6 °F 22.6 °F 24.8 °F 93% 30.21 in 1.8 mi North 3.5 mph - N/A   Clear
7:46 AM 28.4 °F - 26.6 °F 93% 30.21 in 2.0 mi Calm Calm - N/A   Clear
7:54 AM 28.0 °F 24.2 °F 26.1 °F 92% 30.23 in 2.0 mi WSW 3.5 mph - N/A   Clear
8:01 AM 28.4 °F 23.3 °F 26.6 °F 93% 30.21 in 1.5 mi WSW 4.6 mph - N/A   Clear
8:16 AM 30.2 °F - 28.4 °F 93% 30.22 in 2.5 mi Calm Calm - N/A   Clear
8:28 AM 32.0 °F - 28.4 °F 87% 30.23 in 3.0 mi Calm Calm - N/A   Clear
8:54 AM 36.0 °F - 30.9 °F 82% 30.25 in 4.0 mi Calm Calm - N/A   Haze
9:54 AM 44.1 °F - 35.1 °F 71% 30.24 in 5.0 mi Calm Calm - N/A   Haze
10:54 AM 48.0 °F - 36.0 °F 63% 30.24 in 5.0 mi Calm Calm - N/A   Haze
11:54 AM 52.0 °F - 36.0 °F 54% 30.20 in 6.0 mi Variable 3.5 mph - N/A   Haze
12:54 PM 57.0 °F - 35.1 °F 44% 30.17 in 6.0 mi South 5.8 mph - N/A   Haze
1:54 PM 61.0 °F - 35.1 °F 38% 30.15 in 9.0 mi South 4.6 mph - N/A   Clear
2:54 PM 63.0 °F - 34.0 °F 34% 30.12 in 9.0 mi SSE 9.2 mph - N/A   Clear
3:54 PM 62.1 °F - 30.9 °F 31% 30.11 in 8.0 mi SSE 9.2 mph - N/A   Clear
4:54 PM 55.0 °F - 30.9 °F 40% 30.12 in 7.0 mi South 8.1 mph - N/A   Clear
5:54 PM 46.9 °F - 28.9 °F 50% 30.13 in 4.0 mi SSE 10.4 mph - N/A   Haze
6:54 PM 44.1 °F 41.5 °F 28.0 °F 53% 30.13 in 6.0 mi SSE 4.6 mph - N/A   Haze
7:54 PM 39.0 °F 34.0 °F 27.0 °F 62% 30.14 in 6.0 mi South 6.9 mph - N/A   Haze
8:54 PM 39.0 °F 34.0 °F 28.0 °F 65% 30.13 in 7.0 mi South 6.9 mph - N/A   Clear
9:54 PM 39.0 °F 32.3 °F 28.9 °F 67% 30.12 in 7.0 mi SSE 10.4 mph - N/A   Clear
10:54 PM 39.0 °F 33.4 °F 30.9 °F 73% 30.11 in 7.0 mi SE 8.1 mph - N/A   Clear
11:54 PM 42.1 °F 35.7 °F 32.0 °F 67% 30.10 in 8.0 mi SSE 11.5 mph - N/A   Clear